• In Deutschland
  • Länderverzeichnis
  • Für 7 Tage
  • Wassertemperatur
  • Satellitenkarten
  • Wetterkarte
  • Widgets
  • user-avatar
    Anmelden

    Stündliche Wetter Freiberg

    Heute, 15 Dezember, Freitag

    Zeit Temperatur Niederschläge Wind Luftdruck Luftfeuchtigkeit
    00:00 0°C° 0 mm 3 m/S 710 mmHg 86%
    01:00 -1°C° 0 mm 2 m/S 710 mmHg 89%
    02:00 -1°C° 0 mm 2 m/S 709 mmHg 89%
    03:00 -1°C° 0 mm 3 m/S 709 mmHg 90%
    04:00 -1°C° 0 mm 3 m/S 709 mmHg 90%
    05:00 0°C° 0,3 mm 3 m/S 709 mmHg 90%
    06:00 0°C° 0,3 mm 3 m/S 709 mmHg 89%
    07:00 0°C° 0 mm 3 m/S 709 mmHg 91%
    08:00 -1°C° 1,1 mm 4 m/S 709 mmHg 90%
    09:00 -1°C° 1,1 mm 5 m/S 710 mmHg 89%
    10:00 -2°C° 1,1 mm 6 m/S 710 mmHg 88%
    11:00 -1°C° 0,1 mm 6 m/S 711 mmHg 85%
    12:00 -1°C° 0,1 mm 6 m/S 711 mmHg 82%
    13:00 0°C° 0,1 mm 5 m/S 712 mmHg 79%
    14:00 -1°C° 0 mm 4 m/S 712 mmHg 81%
    15:00 -1°C° 0 mm 3 m/S 712 mmHg 84%
    16:00 -1°C° 0 mm 2 m/S 712 mmHg 86%
    17:00 0°C° 0,1 mm 1 m/S 713 mmHg 87%
    18:00 0°C° 0,1 mm 1 m/S 713 mmHg 88%
    19:00 0°C° 0,1 mm 1 m/S 713 mmHg 89%
    20:00 0°C° 0,2 mm 1 m/S 713 mmHg 89%
    21:00 0°C° 0,2 mm 1 m/S 714 mmHg 90%
    22:00 +1°C° 0,2 mm 1 m/S 714 mmHg 90%
    23:00 0°C° 0,1 mm 1 m/S 714 mmHg 91%

    Morgen, 16 Dezember, Samstag

    Zeit Temperatur Niederschläge Wind Luftdruck Luftfeuchtigkeit
    00:00 0°C° 0,1 mm 1 m/S 714 mmHg 92%
    01:00 0°C° 0,1 mm 1 m/S 715 mmHg 92%
    02:00 -1°C° 0 mm 1 m/S 715 mmHg 93%
    03:00 -1°C° 0 mm 1 m/S 715 mmHg 93%
    04:00 -4°C° 0 mm 2 m/S 715 mmHg 93%
    05:00 -4°C° 0 mm 2 m/S 715 mmHg 93%
    06:00 -4°C° 0 mm 2 m/S 716 mmHg 93%
    07:00 -4°C° 0 mm 2 m/S 716 mmHg 94%
    08:00 -4°C° 0 mm 3 m/S 717 mmHg 92%
    09:00 -2°C° 0 mm 3 m/S 718 mmHg 90%
    10:00 -2°C° 0 mm 4 m/S 718 mmHg 88%
    11:00 -2°C° 0 mm 4 m/S 719 mmHg 87%
    12:00 -2°C° 0 mm 4 m/S 719 mmHg 87%
    13:00 -1°C° 0 mm 4 m/S 719 mmHg 86%
    14:00 -1°C° 0,1 mm 4 m/S 720 mmHg 86%
    15:00 -1°C° 0,1 mm 4 m/S 720 mmHg 87%
    16:00 -2°C° 0,1 mm 4 m/S 720 mmHg 88%
    17:00 -2°C° 0 mm 4 m/S 721 mmHg 88%
    18:00 -2°C° 0 mm 4 m/S 721 mmHg 88%
    19:00 -2°C° 0 mm 4 m/S 722 mmHg 88%
    20:00 -2°C° 0 mm 4 m/S 722 mmHg 89%
    21:00 -3°C° 0 mm 4 m/S 722 mmHg 89%
    22:00 -4°C° 0 mm 5 m/S 723 mmHg 90%
    23:00 -4°C° 0,1 mm 5 m/S 723 mmHg 90%

    übermorgen, 17 Dezember, Sonntag

    Zeit Temperatur Niederschläge Wind Luftdruck Luftfeuchtigkeit
    00:00 -4°C° 0,1 mm 5 m/S 724 mmHg 90%
    01:00 -4°C° 0,1 mm 5 m/S 724 mmHg 90%
    02:00 -4°C° 0,1 mm 5 m/S 724 mmHg 90%
    03:00 -4°C° 0,1 mm 5 m/S 724 mmHg 90%
    04:00 -4°C° 0,1 mm 5 m/S 724 mmHg 90%
    05:00 -4°C° 0,1 mm 5 m/S 725 mmHg 90%
    06:00 -4°C° 0,1 mm 5 m/S 725 mmHg 90%
    07:00 -4°C° 0,1 mm 5 m/S 726 mmHg 90%
    08:00 -4°C° 0,1 mm 5 m/S 726 mmHg 89%
    09:00 -4°C° 0,1 mm 5 m/S 727 mmHg 88%
    10:00 -4°C° 0,1 mm 5 m/S 728 mmHg 87%
    11:00 -2°C° 0 mm 5 m/S 728 mmHg 86%
    12:00 -2°C° 0 mm 5 m/S 728 mmHg 85%
    13:00 -2°C° 0 mm 5 m/S 729 mmHg 84%
    14:00 -2°C° 0 mm 5 m/S 729 mmHg 85%
    15:00 -2°C° 0 mm 5 m/S 729 mmHg 86%
    16:00 -2°C° 0 mm 4 m/S 730 mmHg 87%
    17:00 -2°C° 0,1 mm 4 m/S 730 mmHg 87%
    18:00 -2°C° 0,1 mm 4 m/S 731 mmHg 88%
    19:00 -2°C° 0,1 mm 4 m/S 731 mmHg 89%
    20:00 -3°C° 0,1 mm 4 m/S 731 mmHg 89%
    21:00 -4°C° 0,1 mm 5 m/S 731 mmHg 89%
    22:00 -4°C° 0,1 mm 5 m/S 731 mmHg 89%
    23:00 -4°C° 0 mm 5 m/S 731 mmHg 88%

    18 Dezember, Montag

    Zeit Temperatur Niederschläge Wind Luftdruck Luftfeuchtigkeit
    00:00 -4°C° 0 mm 5 m/S 731 mmHg 87%
    01:00 -4°C° 0 mm 5 m/S 731 mmHg 86%
    02:00 -4°C° 0 mm 5 m/S 730 mmHg 84%
    03:00 -4°C° 0 mm 6 m/S 729 mmHg 82%
    04:00 -3°C° 0 mm 6 m/S 728 mmHg 81%
    05:00 -3°C° 0,9 mm 7 m/S 727 mmHg 83%
    06:00 -3°C° 0,9 mm 7 m/S 726 mmHg 86%
    07:00 -4°C° 0,9 mm 8 m/S 726 mmHg 88%
    08:00 -3°C° 0,9 mm 7 m/S 725 mmHg 89%
    09:00 -2°C° 0,9 mm 7 m/S 725 mmHg 90%
    10:00 -2°C° 0,9 mm 7 m/S 725 mmHg 91%
    11:00 -2°C° 0,2 mm 6 m/S 725 mmHg 92%
    12:00 -2°C° 0,2 mm 6 m/S 725 mmHg 93%
    13:00 0°C° 0,2 mm 5 m/S 725 mmHg 94%
    14:00 -1°C° 0,4 mm 5 m/S 726 mmHg 94%
    15:00 -1°C° 0,4 mm 4 m/S 726 mmHg 94%
    16:00 -1°C° 0,4 mm 4 m/S 727 mmHg 94%
    17:00 0°C° 0,4 mm 3 m/S 727 mmHg 95%
    18:00 0°C° 0,4 mm 3 m/S 728 mmHg 95%
    19:00 0°C° 0,4 mm 3 m/S 729 mmHg 96%
    20:00 0°C° 0,1 mm 3 m/S 729 mmHg 96%
    21:00 0°C° 0,1 mm 3 m/S 730 mmHg 96%
    22:00 0°C° 0,1 mm 3 m/S 731 mmHg 96%
    23:00 0°C° 0,1 mm 3 m/S 731 mmHg 96%

    19 Dezember, Dienstag

    Zeit Temperatur Niederschläge Wind Luftdruck Luftfeuchtigkeit
    00:00 -1°C° 0,1 mm 4 m/S 732 mmHg 96%
    01:00 -1°C° 0,1 mm 4 m/S 732 mmHg 96%
    02:00 -1°C° 0,1 mm 4 m/S 732 mmHg 95%
    03:00 -1°C° 0,1 mm 4 m/S 733 mmHg 95%
    04:00 -1°C° 0,1 mm 5 m/S 733 mmHg 94%
    05:00 -1°C° 0,1 mm 5 m/S 733 mmHg 94%
    06:00 -1°C° 0,1 mm 5 m/S 734 mmHg 93%
    07:00 -1°C° 0,1 mm 5 m/S 734 mmHg 93%
    08:00 -1°C° 0,1 mm 5 m/S 735 mmHg 93%
    09:00 -1°C° 0,1 mm 5 m/S 735 mmHg 92%
    10:00 -1°C° 0,1 mm 5 m/S 736 mmHg 92%
    11:00 -1°C° 0,1 mm 5 m/S 736 mmHg 92%
    12:00 -1°C° 0,1 mm 4 m/S 736 mmHg 93%
    13:00 -1°C° 0,1 mm 4 m/S 736 mmHg 93%
    14:00 -1°C° 0,1 mm 4 m/S 736 mmHg 94%
    15:00 -1°C° 0,1 mm 4 m/S 736 mmHg 94%
    16:00 0°C° 0,1 mm 3 m/S 736 mmHg 95%
    17:00 0°C° 0,1 mm 3 m/S 736 mmHg 95%
    18:00 +1°C° 0,1 mm 2 m/S 737 mmHg 95%
    19:00 +1°C° 0,1 mm 2 m/S 737 mmHg 96%
    20:00 +1°C° 0,1 mm 2 m/S 737 mmHg 96%
    21:00 +1°C° 0,1 mm 2 m/S 737 mmHg 96%
    22:00 +1°C° 0,1 mm 2 m/S 737 mmHg 96%
    23:00 +1°C° 0,1 mm 2 m/S 737 mmHg 96%

    20 Dezember, Mittwoch

    Zeit Temperatur Niederschläge Wind Luftdruck Luftfeuchtigkeit
    00:00 +1°C° 0,1 mm 2 m/S 736 mmHg 96%
    01:00 +1°C° 0,1 mm 2 m/S 736 mmHg 96%
    02:00 +1°C° 0,2 mm 2 m/S 736 mmHg 96%
    03:00 +1°C° 0,2 mm 2 m/S 736 mmHg 96%
    04:00 +1°C° 0,2 mm 2 m/S 736 mmHg 96%
    05:00 +1°C° 0,7 mm 2 m/S 736 mmHg 96%
    06:00 +2°C° 0,7 mm 2 m/S 736 mmHg 96%
    07:00 +2°C° 0,7 mm 2 m/S 736 mmHg 96%
    08:00 +2°C° 0,7 mm 2 m/S 736 mmHg 97%
    09:00 +2°C° 0,7 mm 2 m/S 736 mmHg 97%
    10:00 +2°C° 0,7 mm 2 m/S 737 mmHg 97%
    11:00 +3°C° 0,4 mm 2 m/S 736 mmHg 97%
    12:00 +3°C° 0,4 mm 2 m/S 736 mmHg 97%
    13:00 +3°C° 0,4 mm 2 m/S 736 mmHg 97%
    14:00 +3°C° 0,3 mm 2 m/S 736 mmHg 97%
    15:00 +3°C° 0,3 mm 2 m/S 737 mmHg 98%
    16:00 +4°C° 0,3 mm 2 m/S 737 mmHg 98%
    17:00 +4°C° 0,1 mm 2 m/S 737 mmHg 98%
    18:00 +3°C° 0,1 mm 3 m/S 737 mmHg 98%
    19:00 +3°C° 0,1 mm 3 m/S 737 mmHg 97%
    20:00 +3°C° 0,3 mm 3 m/S 737 mmHg 97%
    21:00 +4°C° 0,3 mm 3 m/S 737 mmHg 97%
    22:00 +4°C° 0,3 mm 3 m/S 737 mmHg 97%
    23:00 +4°C° 0,1 mm 4 m/S 737 mmHg 97%
    Mehr zeigen